Wind_Speed
28 26 23 21 19 17 15 14 14 13 13 14 15 16 17 19 20 22 23 25 27 30 33 37 39 40 40 39 40 41 43 45 47 49 52 53 55 56
28 26 24 22 20 18 17 16 16 15 15 16 17 17 18 19 22 25 27 29 32 34 37 39 40 40 40 41 42 43 45 46 48 51 53 54 54 55
29 27 25 23 22 21 20 19 18 18 17 17 18 19 21 23 24 28 30 33 36 38 39 40 41 39 40 42 44 45 46 47 48 50 52 52 53 53
28 27 26 25 24 23 21 21 20 19 20 19 20 20 22 24 27 31 34 36 38 39 40 39 39 39 41 43 45 46 47 49 50 51 51 51 51 48
28 26 26 27 26 24 23 22 22 21 21 21 21 21 23 28 31 34 36 37 39 40 38 37 38 39 41 44 46 49 50 50 48 48 49 49 48 46
30 31 30 29 28 27 24 24 23 22 22 22 22 24 27 30 34 36 36 37 38 36 35 36 37 38 42 45 47 48 49 49 48 47 49 48 47 45
32 31 31 31 30 27 25 24 24 24 24 24 24 28 30 34 36 35 35 36 34 32 35 33 34 38 41 43 45 45 47 48 48 47 48 48 47 45
33 31 32 32 30 26 26 26 25 25 25 25 27 31 33 38 34 35 34 33 30 29 29 31 33 36 38 41 43 44 45 44 44 45 46 46 44 44
33 32 31 29 27 27 26 27 27 27 27 27 29 34 36 37 34 34 34 34 31 28 28 29 30 32 34 35 38 40 41 41 41 42 43 44 44 43
35 32 30 29 28 28 30 29 29 29 29 32 35 37 37 32 32 31 32 31 30 29 30 31 29 29 31 34 35 37 38 38 38 39 41 40 39 39
36 40 39 41 37 31 30 31 32 31 35 35 37 35 34 30 30 29 28 28 28 29 31 34 37 37 34 35 36 35 36 35 35 37 38 38 37 37
38 37 40 34 33 34 33 35 34 36 38 36 33 32 30 29 27 26 26 26 27 28 30 33 37 41 44 38 37 36 35 36 35 34 34 36 36 36
34 37 32 34 36 36 36 37 37 40 37 32 30 29 28 27 24 25 25 26 28 30 32 35 37 39 40 45 40 38 38 37 37 37 35 36 38 38
30 32 37 39 37 39 41 41 41 38 33 32 29 28 25 22 23 23 24 25 28 31 34 36 37 38 40 43 43 40 39 40 39 38 36 34 36 36
35 33 38 39 43 45 42 45 37 35 33 29 28 26 19 21 22 21 23 25 28 32 34 35 36 36 39 42 44 42 42 40 40 38 36 35 37 37
34 40 44 46 44 42 46 38 35 33 28 26 26 20 17 19 19 20 22 23 26 28 31 33 34 36 37 37 39 39 39 40 39 40 38 35 34 34
34 37 41 42 43 43 39 36 33 26 25 25 21 13 18 17 18 19 20 22 24 25 26 29 31 32 32 33 35 37 38 38 38 40 40 36 31 34
23 28 37 40 38 34 34 32 26 24 23 21 11 15 15 16 17 18 19 21 22 24 26 27 28 27 28 28 32 38 39 43 43 41 39 38 32 31
24 24 26 29 29 30 25 23 22 22 20 8 12 15 15 16 17 18 19 20 21 23 25 26 28 31 33 35 33 33 41 42 45 45 41 36 35 33
25 22 23 25 25 22 22 20 19 19 7 10 14 14 14 15 16 17 18 19 19 21 23 26 29 32 35 37 39 37 36 40 43 45 45 37 32 32
19 17 19 20 20 19 18 19 18 6 10 14 12 12 14 15 15 16 17 18 20 22 25 28 31 33 34 35 37 38 37 35 36 42 44 41 37 34
18 15 15 16 16 15 18 15 4 11 12 10 11 13 13 14 14 15 16 19 22 25 27 29 31 32 33 35 37 39 39 39 35 32 34 36 37 38
15 15 15 14 14 17 10 7 12 11 10 10 12 12 12 12 14 16 18 22 25 27 29 30 31 32 33 35 36 38 39 40 39 39 32 27 25 25
Wind_Direction
225 228 229 230 236 244 253 262 268 275 285 291 296 302 305 306 306 311 312 311 309 312 316 319 320 318 317 318 318 317 317 317 318 317 316 315 315 315
227 229 230 233 238 245 252 259 268 276 281 288 294 298 300 305 309 309 310 311 312 315 317 318 317 317 318 319 318 317 319 320 319 318 319 318 318 317
228 230 231 234 239 244 251 258 264 269 278 285 292 296 298 305 306 308 310 313 315 317 317 318 317 317 317 317 318 319 320 320 322 323 323 322 321 320
229 230 232 234 238 243 248 256 262 272 277 284 288 293 300 304 309 309 313 315 316 317 317 317 317 317 319 319 319 320 322 325 326 326 326 324 323 324
229 229 237 237 239 244 248 257 265 271 277 282 287 293 298 301 304 309 312 315 317 318 317 317 317 320 320 320 320 325 328 327 327 326 327 325 324 327
227 227 232 234 237 243 251 259 264 269 275 280 284 290 295 300 306 308 311 314 316 315 316 318 320 322 320 324 329 329 329 328 328 328 326 324 324 325
227 230 232 237 241 246 253 259 265 269 276 278 282 288 295 302 304 306 310 312 313 316 317 318 320 325 328 327 327 329 328 328 328 326 325 323 322 320
229 234 236 239 243 249 253 259 263 270 273 275 281 290 299 303 302 307 308 310 310 312 316 320 325 327 329 327 329 330 328 328 327 326 322 321 321 320
232 235 237 240 245 246 255 262 264 268 271 273 282 289 297 302 304 307 309 309 310 316 320 325 328 329 329 330 331 328 329 330 328 325 322 323 322 320
229 232 234 238 239 248 258 257 264 267 269 271 281 291 297 300 302 305 307 308 312 320 324 325 329 331 333 334 332 333 335 334 331 328 326 326 325 322
227 231 234 237 243 247 252 256 261 263 267 271 288 292 297 302 303 304 304 307 315 322 325 327 328 332 337 336 336 339 337 335 334 334 332 330 327 325
244 242 245 240 239 248 249 254 258 261 267 283 290 291 297 300 299 301 302 307 315 321 325 329 330 331 332 339 338 339 338 338 340 338 335 331 329 327
241 241 239 237 242 247 248 253 255 263 275 284 285 292 297 298 299 300 303 313 321 323 328 330 333 335 334 331 337 337 337 337 338 337 339 336 332 332
239 241 238 240 246 244 246 249 256 267 274 279 284 289 292 295 296 299 308 317 322 326 329 333 336 336 335 333 334 335 335 335 335 332 336 336 332 334
238 246 240 240 243 246 249 247 259 267 272 279 283 286 288 292 295 304 314 320 326 329 332 336 337 337 336 332 330 335 334 331 329 330 333 339 334 333
244 243 244 249 252 249 246 254 261 268 270 277 279 279 288 290 298 307 315 323 327 329 333 336 339 339 336 333 332 332 330 329 329 328 329 336 335 335
251 255 255 250 252 250 253 258 263 269 269 275 273 280 281 290 299 308 317 324 326 330 335 340 341 341 340 339 339 337 338 336 335 331 328 330 339 336
258 263 254 255 255 256 259 265 266 265 269 266 270 278 285 292 301 312 319 323 328 332 338 342 342 344 348 351 347 342 344 342 341 337 330 329 334 338
252 255 261 256 252 256 262 262 259 264 258 249 272 275 282 293 305 314 320 324 331 336 339 340 341 343 344 345 348 345 341 341 340 339 334 332 333 337
240 239 245 252 256 259 258 254 256 242 229 261 261 271 285 297 306 313 318 324 332 335 336 335 337 338 339 340 342 345 342 341 339 337 332 332 330 333
228 233 239 242 245 242 240 250 231 213 245 249 261 276 289 298 306 313 318 325 330 332 333 333 333 334 335 335 337 340 343 343 340 338 332 330 331 333
217 218 219 223 224 234 241 220 217 238 241 254 269 280 290 298 307 313 319 324 326 329 331 330 329 330 332 334 337 337 340 341 342 343 336 328 328 330
204 200 206 215 231 223 203 221 230 233 243 258 272 283 291 301 307 313 319 323 326 327 327 327 328 330 333 335 336 337 337 339 339 342 346 333 324 323
Height
3154 3158 3161 3164 3166 3167 3168 3169 3170 3170 3170 3169 3169 3167 3165 3163 3161 3158 3155 3152 3148 3145 3141 3137 3132 3127 3122 3117 3112 3107 3103 3098 3092 3086 3080 3073 3066 3059
3150 3154 3157 3160 3162 3163 3164 3165 3165 3166 3166 3166 3165 3163 3161 3158 3157 3153 3150 3146 3142 3139 3134 3130 3125 3120 3115 3110 3105 3099 3094 3088 3082 3075 3069 3061 3054 3047
3146 3150 3153 3156 3158 3159 3160 3161 3161 3161 3161 3161 3161 3159 3157 3154 3152 3149 3145 3141 3137 3132 3127 3123 3118 3113 3108 3103 3097 3091 3086 3079 3072 3065 3058 3051 3043 3035
3142 3145 3148 3151 3152 3154 3155 3156 3157 3157 3157 3156 3155 3154 3152 3149 3147 3144 3140 3136 3131 3126 3120 3115 3111 3106 3100 3095 3089 3084 3078 3070 3063 3055 3048 3041 3033 3026
3138 3141 3144 3146 3148 3149 3150 3152 3152 3152 3152 3151 3151 3149 3147 3144 3141 3138 3133 3129 3124 3120 3115 3110 3105 3098 3092 3087 3081 3074 3066 3060 3054 3047 3039 3032 3025 3017
3132 3134 3138 3141 3142 3144 3145 3147 3147 3148 3147 3146 3145 3144 3142 3139 3135 3132 3127 3122 3118 3113 3109 3104 3098 3092 3085 3078 3070 3065 3058 3051 3044 3037 3030 3022 3015 3009
3127 3129 3132 3135 3137 3139 3141 3143 3143 3143 3143 3141 3140 3138 3136 3134 3130 3125 3122 3118 3114 3109 3102 3099 3093 3086 3079 3071 3065 3059 3051 3042 3036 3029 3022 3013 3007 3002
3121 3124 3127 3130 3133 3135 3137 3137 3138 3138 3137 3136 3135 3133 3130 3127 3124 3120 3116 3112 3110 3106 3100 3094 3088 3081 3074 3066 3059 3052 3045 3038 3030 3023 3015 3007 3000 2994
3116 3119 3122 3125 3128 3130 3131 3131 3132 3132 3131 3131 3130 3127 3124 3121 3119 3114 3110 3106 3104 3100 3095 3090 3084 3077 3069 3063 3055 3047 3040 3033 3024 3017 3009 3002 2994 2987
3110 3113 3116 3119 3121 3123 3124 3125 3126 3126 3126 3124 3123 3121 3118 3115 3111 3107 3103 3100 3096 3092 3087 3082 3079 3072 3065 3058 3051 3043 3034 3026 3019 3012 3003 2996 2989 2982
3103 3106 3109 3111 3112 3115 3117 3118 3118 3118 3118 3118 3117 3114 3112 3109 3105 3101 3098 3095 3090 3085 3080 3074 3068 3063 3058 3052 3044 3037 3030 3022 3015 3007 2999 2991 2984 2977
3097 3099 3101 3104 3107 3108 3109 3111 3111 3110 3111 3111 3110 3108 3106 3102 3099 3095 3092 3089 3085 3081 3077 3072 3064 3055 3047 3044 3037 3030 3024 3016 3009 3002 2994 2986 2978 2971
3089 3093 3095 3098 3099 3101 3102 3103 3103 3102 3104 3104 3103 3101 3099 3096 3093 3090 3088 3083 3078 3074 3069 3063 3057 3050 3043 3033 3030 3023 3016 3009 3002 2995 2989 2980 2971 2964
3083 3085 3088 3090 3092 3094 3095 3095 3094 3094 3097 3097 3096 3094 3091 3089 3088 3086 3082 3077 3072 3067 3062 3057 3051 3044 3036 3028 3021 3018 3010 3002 2995 2989 2984 2976 2968 2961
3076 3078 3080 3082 3083 3084 3086 3085 3087 3088 3091 3091 3090 3088 3086 3085 3084 3081 3078 3073 3067 3062 3056 3050 3044 3039 3031 3023 3016 3009 3003 2998 2990 2984 2978 2971 2962 2955
3068 3070 3072 3074 3075 3076 3075 3079 3081 3083 3084 3084 3083 3081 3081 3081 3079 3076 3073 3069 3064 3059 3052 3046 3040 3034 3029 3022 3013 3007 3000 2992 2987 2979 2972 2968 2960 2952
3061 3063 3064 3065 3066 3067 3071 3074 3076 3077 3077 3077 3076 3077 3077 3076 3075 3072 3069 3065 3061 3056 3051 3043 3037 3032 3027 3019 3011 3003 2997 2990 2983 2973 2965 2961 2957 2947
3055 3056 3058 3059 3061 3064 3066 3069 3070 3070 3071 3071 3072 3073 3073 3072 3070 3067 3064 3060 3056 3051 3046 3040 3036 3032 3027 3020 3008 3000 2993 2983 2976 2969 2961 2953 2951 2945
3048 3050 3052 3055 3057 3060 3062 3063 3064 3065 3066 3067 3069 3069 3068 3067 3065 3062 3059 3055 3051 3046 3040 3036 3031 3025 3019 3013 3010 2998 2987 2981 2971 2963 2956 2950 2943 2939
3041 3044 3047 3050 3053 3055 3057 3058 3059 3060 3060 3063 3065 3064 3064 3063 3061 3058 3055 3051 3047 3043 3038 3033 3027 3021 3015 3008 3000 2995 2986 2976 2968 2958 2949 2946 2941 2936
3037 3039 3042 3045 3047 3049 3051 3053 3054 3055 3058 3060 3060 3061 3060 3059 3057 3054 3051 3047 3043 3039 3034 3029 3023 3018 3011 3005 2998 2991 2985 2977 2968 2956 2945 2937 2932 2928
3032 3035 3038 3041 3044 3046 3048 3049 3051 3054 3056 3057 3057 3057 3056 3055 3052 3050 3047 3044 3039 3035 3030 3025 3020 3014 3008 3000 2992 2985 2978 2973 2967 2960 2947 2937 2927 2920
3029 3032 3035 3038 3041 3043 3045 3047 3050 3051 3053 3054 3054 3053 3052 3050 3048 3046 3043 3039 3034 3030 3025 3021 3016 3010 3003 2995 2988 2981 2974 2967 2959 2952 2948 2940 2932 2925